• In Belarus
  • List of Countries
  • For 7 days
  • Water Temperature
  • Satellite Maps
  • Weather Map
  • Weather Widgets
  • user-avatar
    Login

    Hourly Weather Portivs'ke

    Today, 20 April, Saturday

    Time Temperature Precipitation Wind Pressure Humidity
    00:00 +4°C° 0 mm 7 mps 764 mmHg 52%
    01:00 +4°C° 0 mm 7 mps 764 mmHg 54%
    02:00 +3°C° 0 mm 7 mps 764 mmHg 57%
    03:00 +3°C° 0 mm 7 mps 764 mmHg 57%
    04:00 +2°C° 0 mm 7 mps 764 mmHg 57%
    05:00 +2°C° 0 mm 7 mps 765 mmHg 58%
    06:00 +3°C° 0 mm 7 mps 765 mmHg 53%
    07:00 +4°C° 0 mm 8 mps 765 mmHg 49%
    08:00 +6°C° 0 mm 8 mps 765 mmHg 44%
    09:00 +6°C° 0 mm 8 mps 765 mmHg 42%
    10:00 +7°C° 0 mm 8 mps 765 mmHg 40%
    11:00 +9°C° 0 mm 8 mps 765 mmHg 38%
    12:00 +9°C° 0 mm 7 mps 765 mmHg 38%
    13:00 +9°C° 0 mm 7 mps 765 mmHg 37%
    14:00 +10°C° 0 mm 6 mps 764 mmHg 37%
    15:00 +9°C° 0 mm 6 mps 764 mmHg 38%
    16:00 +9°C° 0 mm 6 mps 764 mmHg 39%
    17:00 +9°C° 0 mm 6 mps 764 mmHg 40%
    18:00 +8°C° 0 mm 5 mps 764 mmHg 44%
    19:00 +7°C° 0 mm 5 mps 765 mmHg 47%
    20:00 +7°C° 0 mm 5 mps 765 mmHg 50%
    21:00 +6°C° 0 mm 5 mps 765 mmHg 52%
    22:00 +6°C° 0 mm 5 mps 765 mmHg 54%
    23:00 +5°C° 0 mm 5 mps 765 mmHg 56%

    Tomorrow, 21 April, Sunday

    Time Temperature Precipitation Wind Pressure Humidity
    00:00 +5°C° 0 mm 5 mps 765 mmHg 57%
    01:00 +5°C° 0 mm 5 mps 765 mmHg 57%
    02:00 +3°C° 0 mm 5 mps 765 mmHg 58%
    03:00 +3°C° 0 mm 5 mps 765 mmHg 59%
    04:00 +3°C° 0 mm 5 mps 765 mmHg 59%
    05:00 +3°C° 0 mm 5 mps 765 mmHg 60%
    06:00 +4°C° 0 mm 6 mps 765 mmHg 56%
    07:00 +5°C° 0 mm 6 mps 765 mmHg 52%
    08:00 +8°C° 0 mm 6 mps 765 mmHg 49%
    09:00 +9°C° 0 mm 6 mps 765 mmHg 45%
    10:00 +10°C° 0 mm 6 mps 765 mmHg 42%
    11:00 +11°C° 0 mm 6 mps 765 mmHg 39%
    12:00 +11°C° 0 mm 6 mps 765 mmHg 39%
    13:00 +11°C° 0 mm 6 mps 764 mmHg 38%
    14:00 +13°C° 0 mm 6 mps 764 mmHg 38%
    15:00 +11°C° 0 mm 6 mps 764 mmHg 40%
    16:00 +11°C° 0 mm 6 mps 764 mmHg 41%
    17:00 +12°C° 0 mm 5 mps 764 mmHg 43%
    18:00 +10°C° 0 mm 5 mps 764 mmHg 46%
    19:00 +9°C° 0 mm 5 mps 764 mmHg 50%
    20:00 +8°C° 0 mm 5 mps 765 mmHg 53%
    21:00 +8°C° 0 mm 5 mps 765 mmHg 54%
    22:00 +7°C° 0 mm 5 mps 765 mmHg 55%
    23:00 +7°C° 0 mm 5 mps 765 mmHg 56%

    Day after tomorrow, 22 April, Monday

    Time Temperature Precipitation Wind Pressure Humidity
    00:00 +7°C° 0 mm 6 mps 765 mmHg 56%
    01:00 +5°C° 0 mm 6 mps 765 mmHg 57%
    02:00 +5°C° 0 mm 6 mps 765 mmHg 58%
    03:00 +5°C° 0 mm 6 mps 765 mmHg 58%
    04:00 +5°C° 0 mm 6 mps 765 mmHg 59%
    05:00 +4°C° 0 mm 6 mps 765 mmHg 59%
    06:00 +7°C° 0 mm 6 mps 765 mmHg 55%
    07:00 +8°C° 0 mm 7 mps 766 mmHg 51%
    08:00 +10°C° 0 mm 7 mps 766 mmHg 47%
    09:00 +10°C° 0 mm 7 mps 766 mmHg 45%
    10:00 +11°C° 0 mm 7 mps 766 mmHg 42%
    11:00 +12°C° 0 mm 7 mps 766 mmHg 40%
    12:00 +13°C° 0 mm 6 mps 766 mmHg 40%
    13:00 +14°C° 0 mm 6 mps 765 mmHg 39%
    14:00 +14°C° 0 mm 5 mps 765 mmHg 39%
    15:00 +14°C° 0 mm 5 mps 765 mmHg 40%
    16:00 +13°C° 0 mm 5 mps 765 mmHg 42%
    17:00 +13°C° 0 mm 5 mps 765 mmHg 43%
    18:00 +12°C° 0 mm 4 mps 766 mmHg 46%
    19:00 +11°C° 0 mm 4 mps 766 mmHg 49%
    20:00 +10°C° 0 mm 4 mps 767 mmHg 52%
    21:00 +10°C° 0 mm 4 mps 767 mmHg 53%
    22:00 +10°C° 0 mm 4 mps 767 mmHg 55%
    23:00 +10°C° 0 mm 4 mps 767 mmHg 56%

    23 April, Tuesday

    Time Temperature Precipitation Wind Pressure Humidity
    00:00 +8°C° 0 mm 4 mps 767 mmHg 58%
    01:00 +8°C° 0 mm 4 mps 767 mmHg 60%
    02:00 +7°C° 0 mm 4 mps 767 mmHg 62%
    03:00 +7°C° 0 mm 4 mps 768 mmHg 62%
    04:00 +6°C° 0 mm 4 mps 768 mmHg 63%
    05:00 +6°C° 0 mm 4 mps 768 mmHg 64%
    06:00 +8°C° 0 mm 4 mps 768 mmHg 59%
    07:00 +10°C° 0 mm 4 mps 769 mmHg 54%
    08:00 +11°C° 0 mm 4 mps 769 mmHg 50%
    09:00 +12°C° 0 mm 4 mps 769 mmHg 47%
    10:00 +13°C° 0 mm 4 mps 769 mmHg 43%
    11:00 +14°C° 0 mm 4 mps 769 mmHg 40%
    12:00 +14°C° 0 mm 3 mps 769 mmHg 40%
    13:00 +14°C° 0 mm 3 mps 769 mmHg 40%
    14:00 +14°C° 0 mm 3 mps 769 mmHg 39%
    15:00 +14°C° 0 mm 3 mps 769 mmHg 41%
    16:00 +15°C° 0 mm 2 mps 769 mmHg 42%
    17:00 +15°C° 0 mm 2 mps 769 mmHg 44%
    18:00 +14°C° 0 mm 1 mps 769 mmHg 46%
    19:00 +13°C° 0 mm 1 mps 769 mmHg 48%
    20:00 +13°C° 0 mm 1 mps 770 mmHg 50%
    21:00 +12°C° 0 mm 1 mps 770 mmHg 53%
    22:00 +12°C° 0 mm 1 mps 770 mmHg 55%
    23:00 +11°C° 0 mm 1 mps 770 mmHg 57%

    24 April, Wednesday

    Time Temperature Precipitation Wind Pressure Humidity
    00:00 +10°C° 0 mm 2 mps 770 mmHg 60%
    01:00 +9°C° 0 mm 2 mps 770 mmHg 63%
    02:00 +9°C° 0 mm 3 mps 770 mmHg 66%
    03:00 +9°C° 0 mm 3 mps 770 mmHg 68%
    04:00 +8°C° 0 mm 3 mps 770 mmHg 69%
    05:00 +8°C° 0 mm 3 mps 770 mmHg 70%
    06:00 +10°C° 0 mm 3 mps 770 mmHg 64%
    07:00 +11°C° 0 mm 3 mps 770 mmHg 58%
    08:00 +13°C° 0 mm 3 mps 770 mmHg 52%
    09:00 +14°C° 0 mm 3 mps 770 mmHg 49%
    10:00 +14°C° 0 mm 3 mps 770 mmHg 46%
    11:00 +16°C° 0 mm 3 mps 770 mmHg 43%
    12:00 +16°C° 0 mm 3 mps 769 mmHg 43%
    13:00 +17°C° 0 mm 2 mps 769 mmHg 42%
    14:00 +17°C° 0 mm 2 mps 769 mmHg 42%
    15:00 +17°C° 0 mm 2 mps 769 mmHg 44%
    16:00 +16°C° 0 mm 3 mps 769 mmHg 47%
    17:00 +16°C° 0 mm 3 mps 769 mmHg 49%
    18:00 +14°C° 0 mm 3 mps 769 mmHg 52%
    19:00 +13°C° 0 mm 3 mps 769 mmHg 55%
    20:00 +12°C° 0 mm 4 mps 769 mmHg 57%
    21:00 +12°C° 0 mm 3 mps 769 mmHg 58%
    22:00 +11°C° 0 mm 3 mps 769 mmHg 60%
    23:00 +11°C° 0 mm 3 mps 769 mmHg 61%

    25 April, Thursday

    Time Temperature Precipitation Wind Pressure Humidity
    00:00 +11°C° 0 mm 3 mps 769 mmHg 62%
    01:00 +11°C° 0 mm 3 mps 768 mmHg 64%
    02:00 +11°C° 0 mm 4 mps 768 mmHg 66%
    03:00 +11°C° 0 mm 4 mps 768 mmHg 68%
    04:00 +11°C° 0 mm 4 mps 769 mmHg 71%
    05:00 +11°C° 0 mm 4 mps 769 mmHg 73%
    06:00 +12°C° 0 mm 3 mps 769 mmHg 69%
    07:00 +14°C° 0 mm 3 mps 769 mmHg 65%
    08:00 +17°C° 0 mm 3 mps 769 mmHg 61%
    09:00 +18°C° 0 mm 2 mps 768 mmHg 57%
    10:00 +19°C° 0 mm 2 mps 768 mmHg 53%
    11:00 +21°C° 0 mm 1 mps 768 mmHg 50%
    12:00 +20°C° 0 mm 2 mps 768 mmHg 49%
    13:00 +20°C° 0 mm 2 mps 768 mmHg 49%
    14:00 +20°C° 0 mm 2 mps 767 mmHg 49%
    15:00 +20°C° 0 mm 2 mps 767 mmHg 50%
    16:00 +20°C° 0 mm 3 mps 767 mmHg 52%
    17:00 +20°C° 0 mm 3 mps 767 mmHg 53%
    18:00 +19°C° 0 mm 3 mps 767 mmHg 57%
    19:00 +17°C° 0 mm 3 mps 767 mmHg 60%
    20:00 +16°C° 0 mm 3 mps 767 mmHg 64%
    21:00 +16°C° 0 mm 3 mps 767 mmHg 64%
    22:00 +16°C° 0 mm 3 mps 767 mmHg 65%
    23:00 +15°C° 0 mm 2 mps 766 mmHg 65%
    Show more